sat.trackr.live / text

‹ back to catalog

STARLINK-11396 [DTC]

NORAD 62015 · 2024-213H

PAYLOAD ACTIVE UNKNOWN

§ Identity

Operator
Country
US
Launch date
2024-11-18
Launch site
AFWTR
Launch vehicle
Mass (kg)
RCS (m²)

Purposes: comms

External: N2YO · Heavens-Above · Gunter

§ Orbital elements

Epoch: 2026-09-21T22:51:59.602752Z

Period
91.74 min
Inclination
53.1577°
Eccentricity
0.0001547
Mean motion
15.69708522 rev/d
Perigee alt
358.7 km
Apogee alt
360.8 km
Semi-major
6,737.9 km
B*
8.9197e-4
RAAN
153.5235°
Arg perigee
34.0799°
Mean anomaly
326.0318°
Rev number
10,574

§ Raw data

STARLINK-11396 [DTC]1 62015U 24213H   26264.95277318  .00108895  00000+0  89197-3 0  99952 62015  53.1577 153.5235 0001547  34.0799 326.0318 15.69708522105742

JSON: /api/v1/satellites/62015 · /tle

For live sub-satellite position, see the globe view (requires WebGL).

§ Visibility from observer

Set your observer location to see the next 7 days of passes ≥ 10°. The values pass through the URL so the page stays shareable.

No JS? Fill the form by hand. The geolocation button needs JavaScript.